Tracking 35331 objects as of 16-Sep-2026
HD Live streaming from Space Station
objects crossing your sky now

OBJECT C


OBJECT C is no longer on orbit


NORAD ID: 100239
Int'l Code: 2026-178C
Launch date: August 5, 2026
Source: People's Republic of China (PRC)
Launch site: Yellow Sea Launch Area, China (YSLA)
Decay date: 2026-08-07
Your satellite tracking list
Your tracking list is empty




NASA's NSSDC Master Catalog

Two Line Element Set (TLE):
1 A0239U 26178C   26237.97683447  .00004715  00000-0  30309-3 0  9991
2 A0239  97.6581 313.3743 0014325 189.5270 170.5689 15.08829027  3150
Source of the keplerian elements: AFSPC